[[{"header":{"parameterUnit":"m.s-1","parameterCategory":1,"la1":30.2991,"la2":30.254,"lo1":-89.0895,"lo2":-89.0444,"dy":0.0017,"dx":0.0017,"nx":28,"ny":28,"refTime":"2024-04-19T09:00:00:Z","depth":0,"parameterNumber":2,"parameterNumberName":"U-component_of_WINDS"},"data":[0,0,0,0,0,0,0,0,0,0,0,0,0,0,0,0,0,0,0,0,0,0,0,0,0,0,0,0,0,0,0,0,0,0,0,0,0,0,0,0,0,0,0,0,0,0,0,0,0,0,0,0,0,0,0,0,0,0,0.2728,0.2728,0,0.2706,0.2706,0.2706,0.2686,0.2686,0.2686,0.2686,0.2663,0.2662,0.2662,0,0,0,0,0,0,0,0,0,0,0,0,0,0.2753,0.2753,0.2728,0.2728,0.2728,0.2706,0.2706,0.2706,0.2686,0.2686,0.2686,0.2685,0.2663,0.2662,0.2662,0,0,0,0,0,0,0,0,0,0,0,0,0,0.2738,0.2753,0.2728,0.2716,0.2714,0.2706,0.2706,0.2706,0.2686,0.2686,0.2686,0.2685,0.2663,0.2662,0.2662,0.2665,0,0,0.266,0.266,0,0,0,0,0,0,0,0,0.2739,0.2737,0.2718,0.2716,0.2715,0.2699,0.2706,0.2692,0.2686,0.2697,0.2685,0.2685,0.2675,0.2673,0.267,0.2664,0.2663,0.266,0.266,0.2659,0.2659,0,0,0,0,0,0,0,0.274,0.2738,0.272,0.2717,0.2716,0.2711,0.2708,0.2703,0.2688,0.2696,0.2694,0.2692,0.2674,0.2671,0.2669,0.2662,0.266,0.2659,0.2659,0.2659,0.2657,0.2657,0,0,0,0,0,0,0.2743,0.2739,0.272,0.2719,0.2726,0.271,0.2708,0.2704,0.2688,0.2685,0.2692,0.2691,0.2672,0.267,0.2668,0.267,0.2659,0.2659,0.2658,0.2656,0.2657,0.2657,0,0,0,0,0,0,0.2744,0.2742,0.2721,0.2728,0.2725,0.271,0.2707,0.2704,0.27,0.2685,0.2682,0.2692,0.2671,0.2669,0.2666,0.2669,0.2658,0.2658,0.2656,0.2657,0.2657,0.2675,0,0,0,0,0,0,0.2744,0.2742,0.2743,0.2729,0.2725,0.2719,0.2707,0.2704,0.2699,0.2698,0.2684,0.2681,0.2671,0.2667,0.2665,0.2668,0.2657,0.2656,0.2656,0.2657,0.2674,0.2676,0.2677,0,0,0,0,0,0.2745,0.2749,0.2743,0.2741,0.2726,0.2719,0.2717,0.2705,0.27,0.2701,0.2691,0.2682,0.2669,0.2666,0.2664,0.2668,0.2655,0.2656,0.2657,0.2673,0.2675,0.2677,0,0,0,0,0,0,0.2765,0.2747,0.274,0.274,0.2731,0.2716,0.2717,0.2709,0.2702,0.27,0.2686,0.2683,0.2681,0.2674,0.2671,0.2669,0.2661,0.2661,0.2674,0.2676,0.2678,0.268,0.2657,0,0,0,0,0,0.2769,0.2765,0.275,0.275,0.2746,0.2733,0.2729,0.272,0.2711,0.2707,0.2697,0.2689,0.2682,0.2679,0.2672,0.2672,0.2669,0.2673,0.2675,0.2677,0.2677,0.2676,0.2678,0.2659,0.2659,0.2659,0,0,0.2777,0.2767,0.2766,0.2754,0.2746,0.2742,0.273,0.2726,0.2723,0.2707,0.2703,0.2695,0.2684,0.2682,0.2681,0.2676,0.2681,0.2678,0.2679,0.2679,0.2677,0.2679,0.268,0.266,0.266,0.266,0,0,0.2791,0.2783,0.2783,0.2775,0.2764,0.2754,0.2754,0.274,0.2734,0.273,0.2718,0.2713,0.2703,0.2696,0.2691,0.27,0.2691,0.2699,0.2708,0.2707,0.2709,0.271,0.2713,0.2714,0.2699,0.2699,0.2699,0,0.2803,0.2796,0.2783,0.278,0.2775,0.276,0.2759,0.2753,0.274,0.2736,0.2732,0.2718,0.271,0.2706,0.2708,0.2704,0.2703,0.27,0.271,0.2711,0.2712,0.2714,0.2715,0.27,0.27,0.27,0.27,0,0.2812,0.2807,0.2808,0.2796,0.2791,0.2789,0.2775,0.2771,0.2763,0.2754,0.2749,0.2739,0.2729,0.2728,0.272,0.2722,0.272,0.2712,0.2704,0.2714,0.2717,0.2718,0.2701,0.2701,0.2701,0.2701,0,0,0.2837,0.2817,0.2818,0.2812,0.2798,0.2794,0.2791,0.2782,0.2779,0.277,0.2767,0.2758,0.2751,0.2745,0.2736,0.2735,0.2743,0.2728,0.2727,0.2731,0.2744,0.2749,0.2751,0.2736,0.2737,0.2737,0.2745,0,0.2848,0.2842,0.283,0.2828,0.2823,0.2808,0.2806,0.2797,0.2788,0.2782,0.2772,0.2766,0.2758,0.2754,0.2752,0.2742,0.2745,0.2741,0.2733,0.2733,0.2736,0.2752,0.2758,0.2766,0.2746,0.2746,0.2746,0,0.2861,0.2853,0.285,0.2835,0.2833,0.2831,0.2821,0.2816,0.2805,0.2799,0.2792,0.2781,0.2777,0.2769,0.2762,0.276,0.2755,0.275,0.275,0.2749,0.274,0.2751,0.2769,0.277,0.2747,0.2747,0.2747,0,0.2879,0.2868,0.2864,0.286,0.2843,0.2841,0.2834,0.2823,0.2818,0.2809,0.2806,0.2797,0.2792,0.2785,0.2772,0.2767,0.2766,0.2758,0.2761,0.2761,0.2761,0.2761,0.2778,0.2759,0.2759,0.2759,0.2759,0,0.2893,0.2892,0.2872,0.287,0.2868,0.2854,0.2852,0.2844,0.2833,0.2829,0.2816,0.2812,0.2795,0.2789,0.2779,0.2775,0.2773,0.2767,0.2765,0.2768,0.2769,0.2765,0.2764,0.2759,0.2759,0.2759,0.2759,0,0.2913,0.2901,0.2896,0.288,0.2876,0.2875,0.2861,0.2858,0.2849,0.2843,0.2841,0.2826,0.2818,0.2804,0.2793,0.2786,0.2783,0.2779,0.2787,0.2785,0.2789,0.2789,0.2804,0.2805,0.2785,0.2786,0.2786,0,0.2923,0.2922,0.2905,0.2902,0.2895,0.2889,0.2884,0.2869,0.2864,0.2851,0.2849,0.2841,0.2833,0.2821,0.2808,0.2799,0.2794,0.28,0.2793,0.2796,0.2794,0.2794,0.2794,0.2802,0.2802,0.2802,0.2803,0,0.2941,0.2934,0.2928,0.2918,0.2912,0.2904,0.2895,0.2893,0.2876,0.2871,0.2863,0.2857,0.2845,0.2836,0.2825,0.2817,0.2807,0.2805,0.2805,0.2809,0.2814,0.2811,0.2791,0.2805,0.2805,0.2804,0.2804,0.2804,0.2956,0.2954,0.2942,0.2934,0.2926,0.2918,0.2914,0.2904,0.2897,0.2886,0.2878,0.287,0.2858,0.2842,0.2835,0.2828,0.2823,0.2824,0.2824,0.2824,0.2825,0.2815,0.2826,0.2826,0.2826,0.2826,0.2826,0,0.2973,0.2965,0.2958,0.2946,0.294,0.2931,0.292,0.2916,0.2909,0.2899,0.2891,0.2881,0.2872,0.2859,0.2849,0.2846,0.2841,0.2844,0.2844,0.2842,0.283,0.2831,0.2848,0.2848,0.2848,0.2848,0.2848,0.2848,0.2981,0.2977,0.2969,0.296,0.2952,0.2944,0.2939,0.2931,0.2923,0.2912,0.2905,0.2896,0.2884,0.2873,0.2864,0.286,0.2857,0.2861,0.2856,0.2845,0.2843,0.2841,0.2842,0.2861,0.2861,0.2868,0.2869,0.2869]},{"header":{"parameterUnit":"m.s-1","parameterCategory":1,"la1":30.2991,"la2":30.254,"lo1":-89.0895,"lo2":-89.0444,"dy":0.0017,"dx":0.0017,"nx":28,"ny":28,"refTime":"2024-04-19T09:00:00:Z","depth":0,"parameterNumber":3,"parameterNumberName":"V-component_of_WINDS"},"data":[0,0,0,0,0,0,0,0,0,0,0,0,0,0,0,0,0,0,0,0,0,0,0,0,0,0,0,0,0,0,0,0,0,0,0,0,0,0,0,0,0,0,0,0,0,0,0,0,0,0,0,0,0,0,0,0,0,0,2.0525,2.0526,0,2.0602,2.0603,2.0604,2.0597,2.0596,2.0595,2.0593,2.0669,2.0672,2.0675,0,0,0,0,0,0,0,0,0,0,0,0,0,2.0369,2.0372,2.0525,2.0526,2.0527,2.0602,2.0603,2.0604,2.0597,2.0596,2.0594,2.0593,2.0668,2.0671,2.0675,0,0,0,0,0,0,0,0,0,0,0,0,0,2.0441,2.0373,2.0525,2.0533,2.0534,2.0602,2.0603,2.0604,2.0597,2.0596,2.0594,2.0592,2.0666,2.0671,2.0675,2.0739,0,0,2.069,2.0692,0,0,0,0,0,0,0,0,2.0437,2.0446,2.0531,2.0532,2.0534,2.0588,2.0576,2.0649,2.0598,2.0573,2.0593,2.0591,2.0643,2.0649,2.0668,2.0743,2.0746,2.069,2.0693,2.0695,2.0696,0,0,0,0,0,0,0,2.0432,2.0443,2.0555,2.0532,2.0534,2.0531,2.054,2.0589,2.0617,2.0575,2.0575,2.0584,2.0644,2.0663,2.0669,2.0747,2.069,2.0694,2.0697,2.0699,2.0878,2.088,0,0,0,0,0,0,2.0425,2.0439,2.0553,2.0558,2.048,2.0536,2.0545,2.0573,2.0616,2.0621,2.0586,2.0584,2.0656,2.0664,2.0672,2.075,2.0695,2.0699,2.0702,2.0876,2.0878,2.088,0,0,0,0,0,0,2.0422,2.0436,2.055,2.0498,2.0513,2.054,2.0571,2.0575,2.0595,2.0624,2.0629,2.0601,2.0655,2.0665,2.0723,2.0752,2.0701,2.0705,2.0874,2.0877,2.0879,2.0905,0,0,0,0,0,0,2.0418,2.0434,2.046,2.0499,2.0516,2.06,2.0573,2.0578,2.0603,2.0601,2.064,2.0644,2.0654,2.0716,2.0727,2.0758,2.0709,2.0871,2.0875,2.0878,2.0902,2.0909,2.0915,0,0,0,0,0,2.0412,2.0463,2.0461,2.0475,2.0548,2.0602,2.0611,2.0623,2.0605,2.063,2.065,2.0643,2.0747,2.0722,2.0735,2.0767,2.0869,2.0874,2.0878,2.0899,2.0907,2.0914,0,0,0,0,0,0,2.0425,2.0468,2.0467,2.0532,2.0564,2.0601,2.0633,2.0631,2.0668,2.0664,2.0676,2.0685,2.0742,2.076,2.0731,2.083,2.0806,2.0813,2.0817,2.0825,2.0831,2.0826,2.0713,0,0,0,0,0,2.0436,2.0478,2.0513,2.0567,2.0583,2.0605,2.0629,2.0636,2.0668,2.0681,2.0705,2.0736,2.0775,2.0801,2.0839,2.0904,2.0912,2.0933,2.0939,2.0944,2.095,2.0986,2.0995,2.0895,2.0895,2.0895,0,0,2.0458,2.0487,2.0512,2.057,2.0596,2.0638,2.0617,2.0662,2.0693,2.0688,2.0744,2.0762,2.0797,2.0859,2.0887,2.0875,2.098,2.095,2.0953,2.0957,2.0992,2.1001,2.101,2.0898,2.0898,2.0897,0,0,2.052,2.0546,2.0595,2.0621,2.066,2.0674,2.0686,2.0724,2.0736,2.0793,2.079,2.0826,2.0894,2.092,2.0941,2.1013,2.1009,2.1025,2.1059,2.1094,2.1101,2.1108,2.1135,2.1144,2.1031,2.1031,2.1031,0,2.0543,2.0607,2.0619,2.0666,2.0691,2.069,2.0738,2.0762,2.0811,2.0828,2.0815,2.0901,2.0924,2.0992,2.1009,2.1027,2.104,2.1021,2.1099,2.1107,2.1113,2.1138,2.1148,2.1033,2.1033,2.1033,2.1033,0,2.0633,2.0677,2.0712,2.0761,2.079,2.0837,2.0855,2.0883,2.0887,2.0902,2.096,2.0988,2.1032,2.1049,2.1052,2.1117,2.1108,2.1097,2.1072,2.1125,2.1148,2.1158,2.1036,2.1035,2.1035,2.1034,0,0,2.0706,2.0761,2.0773,2.0796,2.0839,2.0873,2.0919,2.0964,2.0988,2.1021,2.106,2.1118,2.1108,2.1133,2.1139,2.1169,2.1225,2.1154,2.1155,2.1167,2.1299,2.1307,2.1318,2.1222,2.1224,2.1226,2.1296,0,2.0772,2.0857,2.0869,2.0943,2.0984,2.0984,2.1024,2.1054,2.107,2.1107,2.1123,2.1165,2.1148,2.1163,2.1193,2.1212,2.1252,2.1207,2.1258,2.126,2.125,2.1331,2.134,2.1405,2.1305,2.1307,2.1308,0,2.0862,2.0899,2.0978,2.1016,2.1033,2.107,2.1112,2.1147,2.1181,2.119,2.1218,2.122,2.1268,2.1241,2.1306,2.1276,2.1297,2.131,2.1312,2.1318,2.1287,2.1339,2.1426,2.1436,2.1322,2.1321,2.132,0,2.0908,2.0978,2.1034,2.1053,2.1098,2.1124,2.1144,2.1176,2.1202,2.1238,2.1255,2.1295,2.1317,2.1348,2.1361,2.134,2.1426,2.14,2.1434,2.1434,2.1453,2.1452,2.1545,2.1466,2.1466,2.1466,2.1465,0,2.0981,2.1029,2.1055,2.109,2.1144,2.1157,2.1209,2.1228,2.1257,2.1294,2.1295,2.133,2.1345,2.1382,2.1392,2.1445,2.1455,2.1463,2.1465,2.1464,2.1463,2.1478,2.1474,2.1468,2.1468,2.1467,2.1467,0,2.1042,2.1061,2.1122,2.1161,2.1171,2.1209,2.1241,2.1274,2.129,2.1337,2.1349,2.1373,2.1417,2.1433,2.1486,2.1492,2.1554,2.1552,2.1543,2.1544,2.1578,2.1575,2.1685,2.1701,2.161,2.1611,2.1612,0,2.1088,2.1125,2.1168,2.1194,2.1215,2.1256,2.1283,2.1297,2.1325,2.1367,2.1394,2.1438,2.1474,2.1544,2.1565,2.1606,2.1605,2.1641,2.1611,2.1608,2.1606,2.1604,2.1608,2.1647,2.1648,2.1648,2.1649,0,2.1168,2.1176,2.1215,2.1258,2.129,2.1324,2.1357,2.1378,2.1397,2.1428,2.1473,2.1501,2.1556,2.1599,2.1641,2.166,2.1658,2.1658,2.1669,2.1667,2.1661,2.1666,2.1559,2.1656,2.1655,2.1655,2.1654,2.1654,2.1223,2.1256,2.1292,2.1336,2.1362,2.1393,2.1426,2.1446,2.1485,2.1532,2.1537,2.1586,2.1618,2.1674,2.1695,2.1733,2.1723,2.1738,2.1742,2.1745,2.1748,2.1655,2.174,2.174,2.174,2.174,2.174,0,2.1303,2.1326,2.1367,2.1413,2.1448,2.1444,2.148,2.1509,2.1552,2.1583,2.1619,2.1671,2.1713,2.1739,2.1781,2.1806,2.1806,2.1817,2.1815,2.182,2.1754,2.1742,2.1816,2.1816,2.1816,2.1816,2.1816,2.1816,2.1349,2.1406,2.1418,2.1487,2.1509,2.1558,2.1579,2.1608,2.1633,2.1692,2.1727,2.1744,2.1772,2.1817,2.1855,2.1861,2.1877,2.1888,2.1894,2.1832,2.1824,2.1817,2.1805,2.1891,2.1891,2.1956,2.1957,2.1957]}]]